| time (UTC) | temp F | wind direction | speed knots | gust knots | rain 1hr in | rain 24hr in | rain mn in | humidity % | barometer mb |
| 20260904154521 | 85 | 360 | 0.0 | 0.0 | 0.00 | 0.31 | 0.01 | 79 | 1013.8 |
| 20260904153021 | 84 | 360 | 0.0 | 0.0 | 0.00 | 0.31 | 0.01 | 79 | 1013.8 |
| 20260904151521 | 83 | 360 | 0.0 | 0.0 | 0.00 | 0.31 | 0.01 | 81 | 1013.9 |
| 20260904150021 | 80 | 360 | 0.0 | 0.0 | 0.00 | 0.31 | 0.01 | 89 | 1014.0 |
| 20260904144521 | 80 | 360 | 0.0 | 0.0 | 0.00 | 0.31 | 0.01 | 91 | 1013.8 |
| 20260904143033 | 79 | 360 | 0.0 | 0.0 | 0.00 | 0.31 | 0.01 | 91 | 1013.8 |
| 20260904141529 | 78 | 360 | 0.0 | 0.0 | 0.00 | 0.31 | 0.01 | 91 | 1013.7 |
| 20260904140029 | 78 | 360 | 0.0 | 0.0 | 0.00 | 0.31 | 0.01 | 96 | 1013.5 |
| 20260904134537 | 77 | 360 | 0.0 | 0.0 | 0.00 | 0.31 | 0.01 | 98 | 1013.5 |
| 20260904133035 | 76 | 360 | 0.0 | 0.0 | 0.00 | 0.31 | 0.01 | 99 | 1013.5 |
| 20260904131533 | 76 | 360 | 0.0 | 0.0 | 0.00 | 0.31 | 0.01 | 99 | 1013.6 |
| 20260904130038 | 75 | 360 | 0.0 | 0.0 | 0.00 | 0.31 | 0.01 | 99 | 1013.5 |
| 20260904124543 | 74 | 360 | 0.0 | 0.0 | 0.01 | 0.31 | 0.01 | 99 | 1013.5 |
| 20260904123031 | 73 | 360 | 0.0 | 0.0 | 0.01 | 0.31 | 0.01 | 99 | 1013.3 |
| 20260904121513 | 72 | 360 | 0.0 | 0.0 | 0.01 | 0.31 | 0.01 | 99 | 1013.4 |
| 20260904120013 | 72 | 360 | 0.0 | 0.0 | 0.01 | 0.31 | 0.01 | 99 | 1013.2 |
| 20260904114515 | 72 | 360 | 0.0 | 0.0 | 0.00 | 0.30 | 0.00 | 99 | 1013.2 |
| 20260904113015 | 72 | 360 | 0.0 | 0.0 | 0.00 | 0.30 | 0.00 | 99 | 1013.1 |
| 20260904111516 | 72 | 360 | 0.0 | 0.0 | 0.00 | 0.30 | 0.00 | 98 | 1012.9 |
| 20260904110019 | 72 | 360 | 0.0 | 0.0 | 0.00 | 0.30 | 0.00 | 98 | 1012.7 |
| 20260904104525 | 72 | 360 | 0.0 | 0.0 | 0.00 | 0.30 | 0.00 | 98 | 1012.7 |
| 20260904103024 | 72 | 360 | 0.0 | 0.0 | 0.00 | 0.30 | 0.00 | 98 | 1012.8 |
| 20260904101528 | 72 | 360 | 0.0 | 0.0 | 0.00 | 0.30 | 0.00 | 99 | 1012.5 |
| 20260904100029 | 72 | 360 | 0.0 | 0.0 | 0.00 | 0.30 | 0.00 | 98 | 1012.4 |
| 20260904094542 | 73 | 360 | 0.0 | 0.0 | 0.00 | 0.30 | 0.00 | 98 | 1012.4 |
| 20260904093034 | 73 | 360 | 0.0 | 0.0 | 0.00 | 0.30 | 0.00 | 98 | 1012.3 |
| 20260904091518 | 73 | 360 | 0.0 | 0.0 | 0.00 | 0.30 | 0.00 | 98 | 1012.3 |
| 20260904090037 | 73 | 360 | 0.0 | 0.0 | 0.00 | 0.30 | 0.00 | 98 | 1012.2 |
| 20260904084521 | 73 | 360 | 0.0 | 0.0 | 0.00 | 0.30 | 0.00 | 98 | 1012.1 |
| 20260904083100 | 73 | 360 | 0.0 | 0.0 | 0.00 | 0.30 | 0.00 | 98 | 1012.2 |
| 20260904081513 | 73 | 360 | 0.0 | 0.0 | 0.00 | 0.30 | 0.00 | 99 | 1012.2 |
| 20260904080014 | 73 | 360 | 0.0 | 0.0 | 0.00 | 0.30 | 0.00 | 98 | 1012.0 |
| 20260904074519 | 73 | 360 | 0.0 | 0.0 | 0.00 | 0.30 | 0.00 | 98 | 1012.0 |
| 20260904073017 | 73 | 360 | 0.0 | 0.0 | 0.00 | 0.30 | 0.00 | 98 | 1012.0 |
| 20260904071518 | 73 | 360 | 0.0 | 0.0 | 0.00 | 0.30 | 0.00 | 98 | 1012.0 |
| 20260904070026 | 74 | 360 | 0.0 | 0.0 | 0.00 | 0.30 | 0.00 | 98 | 1012.0 |
| 20260904064525 | 74 | 360 | 0.0 | 0.0 | 0.00 | 0.30 | 0.00 | 98 | 1012.0 |
| 20260904063032 | 74 | 360 | 0.0 | 0.0 | 0.00 | 0.30 | 0.00 | 98 | 1012.1 |
| 20260904061530 | 74 | 360 | 0.0 | 0.0 | 0.00 | 0.30 | 0.00 | 98 | 1012.3 |
| 20260904060033 | 74 | 360 | 0.0 | 0.0 | 0.00 | 0.30 | 0.00 | 98 | 1012.3 |
| 20260904054535 | 74 | 360 | 0.0 | 0.0 | 0.00 | 0.30 | 0.00 | 98 | 1012.3 |
| 20260904053043 | 74 | 360 | 0.0 | 0.0 | 0.00 | 0.30 | 0.00 | 98 | 1012.3 |
| 20260904051524 | 74 | 360 | 0.0 | 0.0 | 0.00 | 0.30 | 0.00 | 98 | 1012.4 |
| 20260904050016 | 74 | 360 | 0.0 | 0.0 | 0.00 | 0.30 | 0.00 | 98 | 1012.6 |
| 20260904044522 | 75 | 360 | 0.0 | 0.0 | 0.00 | 0.30 | 0.00 | 98 | 1012.6 |
| 20260904043032 | 75 | 360 | 0.0 | 0.0 | 0.00 | 0.30 | 0.00 | 98 | 1012.6 |
| 20260904041521 | 75 | 360 | 0.0 | 0.0 | 0.00 | 0.30 | 0.00 | 98 | 1012.6 |
| 20260904040029 | 75 | 360 | 0.0 | 0.0 | 0.00 | 0.30 | 0.30 | 97 | 1012.6 |
| 20260904034522 | 75 | 360 | 0.0 | 0.0 | 0.00 | 0.30 | 0.30 | 97 | 1012.5 |
| 20260904033024 | 75 | 360 | 0.0 | 0.0 | 0.00 | 0.30 | 0.30 | 97 | 1012.6 |
| 20260904031531 | 75 | 360 | 0.0 | 0.0 | 0.00 | 0.30 | 0.30 | 97 | 1012.7 |
| 20260904030027 | 75 | 360 | 0.0 | 0.0 | 0.00 | 0.30 | 0.30 | 97 | 1012.5 |
| 20260904024527 | 75 | 360 | 0.0 | 0.0 | 0.00 | 0.30 | 0.30 | 97 | 1012.6 |
| 20260904023032 | 75 | 360 | 0.0 | 0.0 | 0.00 | 0.30 | 0.30 | 97 | 1012.6 |
| 20260904021533 | 75 | 360 | 0.0 | 0.0 | 0.00 | 0.30 | 0.30 | 97 | 1012.4 |
| 20260904020033 | 75 | 360 | 0.0 | 0.0 | 0.00 | 0.30 | 0.30 | 97 | 1012.2 |
| 20260904014535 | 75 | 360 | 0.0 | 0.0 | 0.00 | 0.30 | 0.30 | 96 | 1012.2 |
| 20260904013046 | 75 | 360 | 0.0 | 0.0 | 0.00 | 0.30 | 0.30 | 96 | 1012.1 |
| 20260904011547 | 75 | 360 | 0.0 | 0.0 | 0.00 | 0.30 | 0.30 | 96 | 1012.0 |
| 20260904010046 | 75 | 360 | 0.0 | 0.0 | 0.00 | 0.30 | 0.30 | 96 | 1012.0 |
| 20260904004508 | 75 | 360 | 0.0 | 0.0 | 0.00 | 0.30 | 0.30 | 96 | 1011.8 |
| 20260904003010 | 75 | 360 | 0.0 | 0.0 | 0.00 | 0.30 | 0.30 | 95 | 1011.6 |
| 20260904001514 | 75 | 360 | 0.0 | 0.0 | 0.01 | 0.30 | 0.30 | 95 | 1011.3 |
| 20260904000016 | 75 | 360 | 0.0 | 0.0 | 0.28 | 0.30 | 0.30 | 94 | 1010.9 |
| 20260903234518 | 75 | 360 | 0.0 | 0.0 | 0.30 | 0.30 | 0.30 | 93 | 1011.0 |
| 20260903233018 | 75 | 360 | 0.0 | 0.0 | 0.30 | 0.30 | 0.30 | 92 | 1011.4 |
| 20260903231528 | 77 | 355 | 0.0 | 0.0 | 0.28 | 0.28 | 0.28 | 88 | 1011.8 |
| 20260903230036 | 84 | 325 | 0.0 | 0.9 | 0.01 | 0.01 | 0.02 | 78 | 1011.5 |
| 20260903224534 | 85 | 96 | 0.0 | 0.0 | 0.00 | 0.00 | 0.00 | 74 | 1010.5 |
| 20260903223035 | 85 | 196 | 0.0 | 0.0 | 0.00 | 0.00 | 0.00 | 75 | 1010.3 |
| 20260903221540 | 86 | 196 | 0.0 | 0.0 | 0.00 | 0.00 | 0.00 | 74 | 1010.4 |
| 20260903220028 | 87 | 196 | 0.0 | 0.0 | 0.00 | 0.00 | 0.00 | 73 | 1010.3 |
| 20260903214531 | 87 | 196 | 0.0 | 0.0 | 0.00 | 0.00 | 0.00 | 72 | 1010.3 |
| 20260903213040 | 88 | 196 | 0.0 | 0.0 | 0.00 | 0.00 | 0.00 | 70 | 1010.3 |
| 20260903211534 | 89 | 196 | 0.0 | 0.0 | 0.00 | 0.00 | 0.00 | 65 | 1010.5 |
| 20260903210036 | 91 | 196 | 0.0 | 0.0 | 0.00 | 0.00 | 0.00 | 63 | 1010.6 |
| 20260903204542 | 94 | 199 | 0.0 | 0.0 | 0.00 | 0.00 | 0.00 | 55 | 1010.7 |
| 20260903203045 | 94 | 329 | 0.0 | 0.0 | 0.00 | 0.00 | 0.00 | 56 | 1010.7 |
| 20260903201556 | 94 | 34 | 0.0 | 0.0 | 0.00 | 0.00 | 0.00 | 55 | 1010.9 |
| 20260903200100 | 94 | 286 | 0.0 | 1.7 | 0.00 | 0.00 | 0.00 | 56 | 1011.2 |
| 20260903194600 | 92 | 213 | 0.0 | 0.0 | 0.00 | 0.00 | 0.00 | 59 | 1011.3 |
| 20260903194502 | 92 | 228 | 0.0 | 0.0 | 0.00 | 0.00 | 0.00 | 60 | 1011.3 |
| 20260903193004 | 92 | 279 | 0.0 | 0.0 | 0.00 | 0.00 | 0.00 | 64 | 1011.6 |
| 20260903191505 | 91 | 280 | 0.0 | 0.0 | 0.00 | 0.00 | 0.00 | 63 | 1011.9 |
| 20260903190006 | 93 | 184 | 0.0 | 0.0 | 0.00 | 0.00 | 0.00 | 58 | 1012.0 |
| 20260903184508 | 93 | 355 | 0.0 | 0.0 | 0.00 | 0.00 | 0.00 | 59 | 1012.0 |
| 20260903183011 | 93 | 346 | 0.0 | 0.0 | 0.00 | 0.00 | 0.00 | 58 | 1012.2 |
| 20260903181509 | 94 | 332 | 0.0 | 4.3 | 0.00 | 0.00 | 0.00 | 56 | 1012.4 |
| 20260903180018 | 94 | 355 | 0.0 | 0.0 | 0.00 | 0.00 | 0.00 | 56 | 1012.5 |
| 20260903174517 | 94 | 188 | 0.0 | 0.0 | 0.00 | 0.00 | 0.00 | 56 | 1012.6 |
| 20260903173056 | 93 | 104 | 0.0 | 0.0 | 0.00 | 0.00 | 0.00 | 61 | 1012.7 |
| 20260903171558 | 92 | 355 | 0.0 | 0.0 | 0.00 | 0.00 | 0.00 | 61 | 1013.0 |
| 20260903170106 | 92 | 335 | 0.0 | 0.0 | 0.00 | 0.00 | 0.00 | 62 | 1013.2 |
| 20260903170002 | 92 | 335 | 0.0 | 0.0 | 0.00 | 0.00 | 0.00 | 62 | 1013.2 |
| 20260903164602 | 92 | 350 | 0.0 | 0.0 | 0.00 | 0.00 | 0.00 | 61 | 1013.4 |
| 20260903164501 | 92 | 203 | 0.0 | 0.0 | 0.00 | 0.00 | 0.00 | 61 | 1013.4 |
| 20260903163003 | 91 | 315 | 0.0 | 0.0 | 0.00 | 0.00 | 0.00 | 66 | 1013.5 |
| 20260903161504 | 91 | 198 | 0.0 | 0.0 | 0.00 | 0.00 | 0.00 | 66 | 1013.7 |
| 20260903160007 | 92 | 198 | 0.0 | 0.0 | 0.00 | 0.00 | 0.00 | 62 | 1013.9 |